Wind_Speed
4 5 3 1 4 5 3 2 4 3 3 3 3 3 6 6 6 8 7 4 3 2 6 7 7 12 17 18 19 18 12 8 9 8 7 6 5 4 5 6 6 6 7 8 9 7 8 10 11 13 15 16 18 20 21 24 27 30 31 32 34 34 33 33 33 33 33 33 32 30 31 32 31 30 29 29 29 28 27 26 26 26 27 27 26 26
5 6 1 4 5 4 4 3 1 2 3 3 3 4 6 5 7 7 4 4 5 4 6 8 9 14 17 16 17 15 11 8 7 7 7 7 7 7 8 9 8 6 7 10 10 10 10 6 4 6 9 12 14 16 19 23 26 28 30 31 33 33 33 34 35 35 36 37 36 34 34 33 31 31 31 31 31 29 28 26 26 27 27 28 28 28
5 3 4 4 2 3 4 3 2 3 3 3 3 3 6 5 5 7 4 5 6 5 8 10 10 14 16 14 13 11 7 6 7 5 5 9 11 10 10 11 9 8 10 11 10 11 11 6 1 4 7 11 14 16 19 22 24 27 29 31 32 32 34 35 36 36 37 37 36 34 33 31 30 31 31 31 29 28 28 27 27 28 28 29 29 29
4 3 5 4 5 5 5 4 4 4 4 3 3 3 6 5 4 5 5 7 7 4 6 9 9 9 10 9 7 8 6 5 9 11 10 9 9 8 8 8 8 9 9 9 8 7 6 2 4 7 10 13 15 17 19 22 24 26 29 31 32 32 33 34 35 36 36 34 32 32 30 28 28 28 28 29 29 29 29 29 29 29 29 30 30 30
1 4 3 5 5 4 4 6 6 5 5 4 4 3 5 5 3 4 6 9 8 4 2 6 8 5 6 10 8 7 8 10 10 12 11 8 7 7 8 8 7 7 7 7 7 6 5 4 6 8 12 15 17 20 21 23 25 27 29 30 32 32 33 33 34 34 34 31 29 28 25 23 23 23 24 27 30 30 30 31 32 32 32 32 32 31
1 3 2 5 5 5 5 5 5 4 5 6 4 3 4 6 6 6 7 9 6 4 3 7 6 5 6 8 6 5 8 10 8 8 8 6 7 7 8 8 7 6 6 6 5 5 6 8 11 12 11 14 19 19 20 22 24 25 27 29 30 32 32 33 33 33 32 31 29 28 26 24 23 23 25 30 32 33 33 33 33 33 33 33 33 32
2 4 3 4 4 6 6 4 3 3 5 6 4 3 4 6 7 6 6 5 3 4 4 4 3 4 7 7 5 4 7 8 7 7 6 5 5 6 5 5 6 6 6 6 6 6 7 9 11 13 15 13 14 16 18 20 22 24 25 26 27 30 31 32 32 31 31 32 31 31 31 30 28 27 29 31 31 32 33 32 31 32 33 33 33 32
2 6 6 6 5 6 6 4 4 3 5 5 4 1 6 9 8 5 2 1 2 3 6 3 4 2 5 7 6 3 6 7 8 7 6 5 3 4 5 5 5 5 5 5 7 8 8 10 12 14 20 18 15 19 21 20 21 21 23 24 24 25 28 30 31 31 32 33 33 34 33 32 32 32 31 30 30 31 31 30 30 31 32 33 33 32
3 5 5 5 6 5 3 4 5 2 2 7 6 2 8 8 6 4 2 3 2 2 5 5 1 0 5 7 6 4 6 6 6 6 7 6 5 5 5 5 5 5 5 4 6 7 8 12 16 20 24 22 19 23 25 23 21 19 19 20 21 22 25 28 30 32 33 35 35 34 34 33 33 33 31 28 29 30 31 30 31 31 32 33 32 31
1 1 1 2 5 2 4 6 5 1 2 8 6 6 6 3 1 3 3 2 2 4 2 6 1 1 5 6 5 4 4 3 6 6 7 5 6 5 4 5 6 6 5 4 5 6 9 15 20 23 25 22 20 25 27 25 21 18 16 16 18 20 22 25 29 32 33 35 35 34 35 35 33 31 29 27 28 29 30 31 31 32 33 33 33 32
3 2 2 3 2 3 5 6 3 3 5 6 6 6 6 4 3 2 1 2 4 3 5 7 2 2 3 5 3 2 2 4 5 4 6 6 6 6 5 5 5 5 6 6 6 6 10 17 20 21 23 21 22 28 30 26 19 16 16 16 17 19 21 24 27 30 32 34 35 36 36 36 34 31 28 27 28 28 29 30 31 31 32 33 32 32
6 4 2 1 2 1 2 4 4 1 1 5 5 4 5 5 4 4 4 4 4 4 7 6 2 1 2 5 5 5 6 6 5 3 5 6 6 6 5 5 4 5 6 6 7 7 9 12 15 17 19 20 21 26 29 26 21 16 15 17 18 19 20 23 26 28 31 33 35 37 37 36 35 32 30 30 30 30 30 31 31 31 31 31 31 30
5 3 4 4 2 1 2 4 6 5 5 6 4 5 6 4 5 5 5 4 2 6 7 3 2 1 5 6 7 7 7 8 8 6 5 7 6 5 4 4 4 5 6 6 6 6 7 7 8 13 16 18 19 22 25 25 24 21 18 17 17 18 20 23 25 26 29 32 35 37 37 37 35 33 33 33 33 32 32 32 32 32 32 31 31 31
4 6 6 4 2 1 3 4 5 5 5 6 3 4 3 2 4 5 4 4 4 7 10 3 3 2 5 5 7 8 8 10 9 6 6 6 4 2 2 5 6 6 7 6 6 6 6 6 8 13 16 18 20 23 25 26 26 26 23 18 16 18 20 22 24 25 27 31 34 36 37 37 35 33 34 35 35 35 34 34 34 34 33 33 33 34
4 6 4 3 3 2 3 1 1 2 3 4 2 4 3 2 2 2 2 3 5 7 11 5 3 3 5 5 8 7 7 8 7 5 4 5 3 0 3 6 6 7 7 6 6 6 6 7 10 14 16 19 21 24 26 27 28 29 28 23 20 21 23 24 25 24 25 29 32 35 36 36 35 34 34 35 36 35 35 35 35 35 34 34 34 34
3 5 7 2 1 0 1 2 2 2 2 4 1 4 2 2 4 2 3 5 4 5 7 4 1 4 4 8 9 4 4 7 6 6 4 4 4 4 5 6 5 6 6 5 5 6 6 7 10 13 15 17 20 22 25 27 28 29 29 28 26 26 26 25 25 24 24 26 30 32 34 35 35 34 34 34 35 34 35 35 35 35 34 34 33 33
3 6 8 5 3 2 3 2 1 1 2 2 2 2 3 3 6 1 4 3 2 2 5 3 4 5 4 7 8 5 7 8 6 6 5 3 4 5 4 5 5 5 6 5 5 6 6 6 9 11 13 16 18 20 22 24 26 28 29 29 30 30 29 27 26 25 25 25 27 30 33 34 35 35 35 35 35 35 34 34 34 34 34 33 33 32
0 5 8 3 4 5 3 2 2 1 1 1 1 3 3 2 4 3 1 3 4 2 5 4 5 6 4 5 7 7 9 11 9 7 6 6 5 4 5 5 5 6 5 5 5 6 6 6 8 11 14 17 18 19 22 23 25 27 28 29 30 31 31 29 27 26 25 24 25 28 31 33 35 36 36 36 35 34 34 34 34 33 33 34 33 32
1 3 8 3 3 6 1 3 3 4 1 1 2 2 2 2 2 1 1 2 2 3 6 6 7 5 3 5 6 7 8 11 12 8 6 7 6 5 6 6 6 6 5 5 5 6 6 6 8 11 14 18 20 22 24 25 25 26 27 28 30 31 32 31 28 27 26 25 25 27 29 32 34 35 36 35 34 33 34 34 34 33 34 34 33 33
0 0 6 5 3 5 4 4 3 5 5 3 2 3 2 2 3 2 1 2 2 3 4 6 8 5 5 6 5 8 10 11 10 8 7 7 6 6 6 6 6 6 5 4 5 6 6 7 8 11 13 17 20 22 25 26 26 27 27 28 29 32 34 34 32 29 28 27 26 26 28 30 32 34 34 34 34 34 34 34 34 34 35 34 33 33
2 1 4 6 5 5 3 1 2 3 3 3 3 3 3 2 1 1 1 2 4 2 3 4 6 7 7 5 5 10 12 9 7 7 8 7 7 7 6 6 6 6 6 6 6 7 6 6 8 12 15 19 22 24 26 27 28 29 29 28 29 30 32 34 34 33 31 30 28 26 26 29 31 32 33 34 34 34 34 34 34 35 34 33 34 33
2 1 2 5 5 4 5 6 5 5 4 3 2 2 3 2 1 2 4 2 1 3 4 3 5 10 10 5 5 9 9 7 7 8 9 11 10 7 6 7 6 6 7 6 8 8 6 6 10 14 18 21 22 24 27 28 29 29 30 30 29 29 31 32 33 34 33 32 30 28 27 28 30 31 33 33 34 35 35 34 34 34 33 33 34 33
0 2 1 5 5 7 12 7 3 4 3 3 3 3 2 2 3 3 4 5 3 2 3 3 4 10 10 4 5 6 5 7 9 8 10 12 10 7 7 7 6 7 8 9 10 9 7 10 14 17 19 21 22 24 27 29 29 29 30 30 30 30 31 31 30 30 32 32 32 31 29 29 29 31 32 33 34 35 35 35 35 33 33 34 33 31
1 2 1 5 6 7 10 5 3 3 2 0 4 3 2 2 4 6 5 2 2 5 3 1 4 10 8 2 3 6 8 9 9 9 11 11 8 7 8 8 8 9 11 11 11 9 9 13 16 17 19 21 22 24 26 28 29 30 30 30 30 30 32 32 30 28 30 31 32 31 29 29 29 30 31 32 34 36 36 36 35 34 34 34 33 32
2 0 2 4 6 8 8 7 5 2 1 2 6 3 3 2 2 1 2 2 1 6 6 4 5 10 7 5 8 12 13 12 13 14 12 9 7 7 9 10 10 11 13 13 13 11 11 12 13 14 18 20 22 24 26 28 30 31 31 31 30 31 33 34 31 28 28 29 30 30 30 29 29 30 32 33 34 35 35 35 34 34 34 33 33 32
1 2 2 2 2 5 7 6 6 6 5 6 7 6 3 2 1 4 2 1 3 5 4 4 7 11 11 12 15 16 15 15 19 18 12 8 8 11 11 11 11 11 12 13 13 12 12 11 11 14 19 21 22 24 26 28 30 31 32 33 32 32 34 35 33 30 28 28 28 29 30 30 29 30 32 34 35 35 35 34 34 33 33 33 32 32
1 1 2 5 6 5 7 8 7 4 6 10 14 17 13 4 3 3 1 3 5 2 3 9 11 13 15 16 16 16 17 19 20 17 13 12 13 14 12 11 12 12 12 14 14 13 13 13 13 15 19 22 23 24 25 27 29 31 32 33 34 33 33 35 35 32 30 28 27 27 29 30 30 30 32 34 35 35 34 34 33 33 33 32 32 31
3 3 5 6 8 10 10 11 10 7 8 12 14 19 19 11 3 4 6 10 6 1 7 14 13 14 15 16 18 19 21 21 21 18 16 15 16 15 15 17 19 18 16 17 17 15 15 14 13 14 18 21 23 25 26 27 28 30 31 32 35 35 34 35 35 34 32 30 27 27 28 30 30 30 32 33 34 34 34 33 32 33 32 32 32 32
3 3 5 5 7 12 12 11 12 9 8 10 13 17 18 15 11 9 12 15 8 5 11 16 16 16 13 16 20 21 21 21 21 18 15 15 16 16 19 22 23 21 20 21 20 18 16 16 15 16 18 21 24 26 27 28 29 30 31 33 36 36 35 35 35 35 34 31 30 29 29 30 30 30 31 31 32 33 33 33 32 32 31 31 32 32
3 3 5 3 5 11 12 12 11 8 6 9 15 17 14 13 14 13 13 13 9 11 15 16 17 13 10 15 16 16 17 17 18 17 14 15 16 17 20 22 20 20 21 20 20 19 18 19 18 17 19 22 25 27 28 29 30 31 33 34 36 36 36 36 35 34 34 32 32 33 31 29 30 31 30 30 31 32 32 32 32 31 31 31 31 31
1 3 3 2 4 11 11 7 6 5 6 12 18 17 12 12 13 11 9 7 5 7 10 11 10 8 11 14 15 15 17 18 19 18 13 10 13 16 17 17 16 20 21 20 20 21 20 20 19 18 19 22 27 29 30 31 33 34 34 34 35 37 38 38 36 34 34 33 34 34 32 30 31 31 30 30 31 31 31 32 31 31 31 31 31 30
1 2 4 5 5 11 8 4 7 9 9 12 13 11 12 12 11 9 6 6 6 6 8 10 8 8 11 15 15 16 20 21 20 19 14 10 12 15 15 15 17 20 22 20 20 21 20 20 19 18 20 24 28 30 31 33 34 34 34 34 36 38 39 38 36 34 34 34 34 34 31 30 30 30 30 30 30 30 31 31 30 30 30 30 31 31
1 0 4 4 3 10 11 9 12 11 8 7 6 10 14 11 10 11 7 9 9 7 7 7 7 9 11 14 15 17 21 21 18 17 16 13 14 17 17 19 21 21 21 20 20 20 20 19 20 21 25 28 30 31 34 35 34 33 35 36 37 38 39 38 36 34 34 34 34 33 32 31 30 30 30 29 29 30 29 29 29 30 30 30 31 30
1 2 2 1 1 9 13 12 12 9 6 5 3 13 16 11 13 15 8 8 10 9 7 6 8 11 14 14 15 15 16 17 16 15 17 15 14 17 19 21 22 21 21 20 20 20 19 19 23 28 31 32 33 35 37 37 37 36 37 36 37 38 38 37 36 34 34 34 34 33 32 30 30 31 31 30 29 28 27 27 29 30 30 29 29 29
2 0 2 2 2 6 8 8 9 9 6 4 5 14 16 14 16 16 6 6 11 13 12 13 13 14 14 13 13 13 13 16 17 17 18 17 15 17 19 20 21 22 21 21 21 20 20 22 26 29 32 34 36 37 38 38 39 39 37 36 37 37 38 37 35 34 34 34 34 33 31 29 30 31 31 29 27 26 26 27 28 29 29 29 29 30
2 1 1 1 2 4 5 4 5 10 8 8 11 14 17 18 19 17 8 5 10 14 14 14 14 14 14 14 14 14 16 18 17 15 16 17 17 18 19 20 21 21 21 22 22 22 24 28 30 31 34 36 37 37 37 39 40 38 37 37 36 36 37 37 35 34 34 34 34 34 32 30 30 30 30 28 25 24 25 27 28 29 29 29 29 29
4 2 1 2 2 1 3 4 6 11 8 9 10 11 13 13 14 14 9 2 7 15 15 15 17 19 19 19 19 20 21 20 16 13 15 18 20 22 23 22 23 23 24 27 30 31 34 36 36 37 38 38 38 39 39 39 40 38 36 36 34 34 35 34 33 32 33 33 34 35 35 33 31 30 29 26 23 23 25 27 28 29 28 28 29 29
4 4 2 2 1 1 3 5 5 8 6 5 9 11 12 14 16 13 8 3 9 20 20 18 21 23 22 20 21 21 21 18 15 14 15 18 21 22 22 24 26 28 30 32 35 36 38 39 39 39 39 38 39 41 41 40 40 37 34 33 33 34 33 33 33 32 33 34 35 37 37 36 34 32 29 26 24 23 25 26 28 29 28 29 29 30
2 3 4 1 3 1 2 4 5 5 2 6 13 15 16 18 17 12 8 5 13 22 21 19 21 22 19 18 19 17 15 15 15 13 15 19 20 20 21 23 26 32 35 36 36 36 38 40 40 40 39 38 38 40 39 39 40 37 31 32 34 32 31 32 32 32 34 35 36 37 37 36 36 34 30 29 27 25 26 27 27 28 28 29 29 29
0 1 2 2 5 3 2 4 5 2 0 6 12 14 17 19 15 10 10 10 14 18 17 16 19 20 17 17 16 13 12 13 14 15 17 19 20 21 24 24 25 29 33 35 37 39 40 40 38 35 35 37 39 39 38 39 38 32 29 31 32 30 31 33 33 34 36 37 36 37 36 35 35 34 31 31 29 27 27 27 26 25 26 28 28 27
3 2 3 3 5 4 3 4 4 1 1 8 15 16 17 16 10 9 9 12 14 17 16 16 18 18 16 16 14 11 11 13 16 18 19 20 20 22 26 29 31 33 35 36 38 39 38 36 35 34 36 39 40 40 39 38 33 28 28 30 29 30 33 36 35 36 37 36 35 36 35 35 35 34 32 32 31 30 29 26 25 25 26 27 27 25
5 4 1 1 4 4 3 4 5 3 2 13 19 16 14 13 7 5 9 12 15 17 16 16 17 16 15 15 14 13 15 17 19 20 19 20 21 20 23 28 31 33 35 36 38 38 35 33 34 36 38 40 40 40 39 35 29 29 31 29 29 33 37 36 35 36 37 36 35 35 35 35 35 35 33 32 31 30 28 25 24 25 26 26 26 25
4 4 4 3 3 3 4 4 5 3 5 15 17 11 9 10 7 8 10 12 14 16 15 14 14 14 14 15 16 17 19 19 19 19 19 21 21 20 22 26 27 28 32 34 35 37 36 33 33 35 38 40 40 39 37 33 29 30 30 30 33 38 38 35 34 34 35 34 34 35 35 35 35 35 33 32 30 28 27 24 22 23 25 25 24 23
4 3 4 4 3 4 5 4 4 4 5 11 12 8 7 8 9 9 10 11 12 13 12 11 12 13 14 16 17 19 19 19 19 20 20 21 21 19 21 25 28 29 32 33 34 37 37 33 33 36 39 40 38 37 37 34 31 29 29 32 36 38 37 36 35 33 33 33 33 34 35 35 35 35 33 32 30 27 24 22 21 22 23 24 23 21
4 4 4 3 3 4 4 4 5 7 7 10 10 8 11 13 12 11 13 13 11 11 11 10 13 15 17 17 18 18 17 18 19 21 21 20 20 19 21 25 29 31 32 33 36 37 36 34 35 38 39 38 36 37 38 36 31 28 30 35 37 36 35 36 34 32 32 32 32 33 34 35 35 34 33 31 28 25 22 20 19 19 21 22 21 20
3 6 4 1 4 6 4 4 9 12 13 15 13 10 13 15 14 14 14 12 12 12 12 11 14 16 17 17 17 17 18 19 21 21 21 20 19 20 22 24 28 32 33 33 36 37 36 35 36 37 36 34 35 37 38 36 32 29 31 35 37 35 35 34 32 32 33 32 31 33 34 34 33 32 31 29 25 23 21 20 20 20 19 20 20 19
5 9 5 3 7 8 5 7 13 15 17 17 14 12 13 15 14 13 13 12 13 13 14 14 15 16 17 17 16 18 19 20 20 20 19 18 19 20 19 20 25 30 32 33 36 38 35 32 31 33 33 32 33 35 36 36 35 33 34 36 36 35 34 33 31 31 31 30 30 31 31 31 30 29 28 26 22 19 17 18 19 19 18 19 18 17
6 7 6 7 10 8 7 10 14 16 18 18 14 13 14 15 16 15 14 14 16 17 19 20 18 15 15 16 17 18 20 20 20 20 18 16 17 18 17 19 24 29 33 36 38 37 33 30 29 31 32 32 32 33 35 35 36 36 36 36 35 34 33 32 32 31 30 29 29 29 29 29 28 28 26 23 19 16 15 16 18 20 20 22 22 20
5 5 6 9 9 8 9 13 16 17 17 16 15 15 15 16 18 18 17 17 18 19 20 21 21 18 17 18 18 18 19 20 19 20 20 18 17 18 19 23 28 31 33 35 36 35 32 31 31 32 33 34 34 34 34 35 36 37 37 36 35 32 31 31 32 31 29 27 26 27 28 27 27 26 24 20 16 15 15 16 18 20 21 22 25 24
5 6 7 8 8 8 10 14 16 15 14 14 17 18 17 17 18 18 18 18 20 21 20 21 23 24 23 22 21 19 19 20 20 21 20 18 17 20 24 28 30 31 32 34 35 34 33 33 33 33 34 36 35 33 33 34 35 37 38 36 34 32 30 31 31 29 26 24 25 26 27 26 25 25 23 18 13 12 13 14 15 17 18 19 21 21
6 7 7 7 8 10 14 16 15 13 13 15 18 18 18 18 18 17 19 20 21 23 22 20 22 24 23 24 27 24 19 20 23 22 19 19 22 26 29 30 29 29 31 33 32 31 33 34 33 33 35 35 33 31 32 35 35 36 37 37 34 32 31 30 28 25 23 23 24 26 27 25 23 23 21 16 11 11 10 9 8 10 13 14 15 16
Wind_Direction
88 62 38 247 252 257 266 183 178 227 235 256 285 295 284 288 288 279 281 301 3 358 266 259 278 287 292 296 296 303 317 304 290 297 299 296 300 313 307 307 326 311 292 295 282 247 211 206 204 206 208 207 209 215 220 220 221 222 222 221 221 222 221 219 218 216 214 212 211 211 213 215 218 219 220 223 225 228 229 229 229 229 231 232 233 233
68 64 324 238 235 251 275 266 267 324 319 310 308 312 308 289 276 282 297 328 13 9 289 292 311 297 294 297 296 305 318 313 307 306 319 359 20 24 27 22 13 353 355 12 15 30 50 74 126 191 204 207 210 213 220 225 226 226 225 226 226 223 221 221 221 218 217 217 215 214 215 216 218 219 220 222 225 228 229 228 228 229 231 232 232 232
37 45 282 274 326 343 315 290 310 325 332 334 329 335 319 295 284 300 329 355 12 360 302 315 323 299 295 297 295 305 314 301 319 344 17 43 47 42 43 40 32 24 25 33 32 33 43 53 73 233 233 232 230 228 229 231 232 230 229 231 231 228 225 225 224 222 222 223 222 221 221 221 222 223 225 227 229 230 229 228 227 229 231 232 232 232
21 311 283 320 7 9 337 330 1 354 352 341 328 329 306 320 349 313 323 343 332 290 279 311 315 295 305 320 316 326 351 2 15 42 57 59 60 56 56 54 46 42 36 37 33 26 33 6 258 259 268 264 252 245 243 239 236 235 234 235 236 234 232 230 227 226 226 226 225 225 227 229 229 230 230 230 232 231 228 227 226 228 231 232 232 232
28 279 309 3 360 18 348 344 24 20 348 318 290 285 288 314 322 265 301 328 319 294 302 344 330 306 329 347 344 340 13 26 27 49 56 47 52 54 50 47 48 52 47 42 35 18 9 334 296 285 277 266 257 254 256 254 246 243 242 241 241 240 238 236 232 229 227 225 224 222 223 227 229 229 226 223 225 226 224 224 224 225 228 230 231 231
2 289 358 13 349 19 12 342 11 27 350 324 291 238 256 290 290 290 326 339 346 341 9 38 9 305 320 339 330 332 19 25 14 39 49 36 41 43 40 33 30 40 39 34 28 3 352 341 329 320 295 259 251 258 269 271 261 253 251 249 247 245 244 242 237 231 227 224 221 216 213 213 213 214 215 215 216 216 217 220 222 223 225 226 228 230
3 333 10 21 351 14 24 353 347 44 25 332 278 223 259 292 307 324 354 4 2 303 300 60 106 258 310 315 295 334 27 23 7 19 20 17 40 47 48 34 23 25 18 14 8 354 344 335 326 322 315 289 270 285 293 284 272 263 260 257 253 250 248 246 241 234 227 224 221 217 215 213 210 211 214 215 214 213 214 218 220 220 221 223 227 230
3 358 7 20 21 25 25 354 317 50 40 297 246 227 304 306 310 319 27 111 229 275 309 6 134 196 296 281 280 350 42 20 3 358 342 339 3 28 38 24 19 17 4 7 3 353 344 335 327 323 325 320 320 330 324 304 285 272 267 264 261 258 255 252 246 237 230 225 222 220 219 218 217 218 220 218 216 216 216 218 220 220 220 222 227 230
13 19 2 17 32 27 2 287 274 60 38 268 247 279 293 292 282 254 181 224 246 30 337 321 87 153 274 275 308 9 53 11 334 312 312 318 325 350 12 352 352 4 356 359 355 348 344 334 330 332 335 336 346 352 343 327 306 285 275 269 264 263 263 259 250 241 235 229 226 222 220 221 223 225 227 225 223 223 223 223 224 222 222 223 225 228
4 23 226 73 49 346 279 264 253 139 255 273 285 295 293 310 226 196 167 215 7 51 294 278 328 42 285 289 320 4 42 326 282 281 292 301 316 326 335 329 341 356 344 335 338 341 342 338 336 342 346 348 355 357 353 342 322 300 291 281 271 271 273 266 255 244 238 232 227 224 223 223 225 227 228 229 231 230 227 226 225 222 221 221 221 224
306 291 202 102 90 241 262 277 264 192 238 303 341 327 331 15 47 46 74 95 49 11 260 249 216 85 310 294 285 296 299 253 240 270 291 298 310 310 313 324 337 347 335 329 337 337 340 344 347 352 352 350 355 360 359 353 334 314 306 296 287 286 285 277 263 250 241 235 228 227 227 226 227 226 225 225 227 226 222 220 219 217 216 217 219 220
349 1 349 283 244 241 301 310 324 335 350 10 7 355 355 352 13 14 355 40 46 304 261 245 252 108 240 271 277 275 272 243 215 240 283 285 285 283 296 317 338 354 348 344 345 339 343 349 351 354 354 352 357 2 2 357 346 332 317 305 298 298 301 295 279 259 246 239 233 231 231 230 230 227 223 221 219 216 213 212 211 210 211 213 216 218
352 330 303 294 283 38 23 338 339 355 22 23 10 27 26 355 3 3 339 2 356 269 263 270 358 309 235 251 268 270 262 239 222 220 237 251 261 271 299 339 355 356 355 351 342 337 345 348 345 354 358 357 357 359 360 359 353 342 328 312 303 307 314 311 296 273 253 244 239 235 233 233 232 229 226 223 220 217 214 211 210 210 210 211 214 216
339 306 318 351 337 36 65 27 351 330 345 356 10 61 60 36 11 337 313 336 314 281 288 310 101 270 286 268 249 241 231 227 225 220 225 244 248 242 350 10 6 357 357 347 334 341 347 344 353 1 360 356 355 355 355 356 354 350 340 325 313 317 323 323 314 291 264 251 246 240 237 235 233 230 228 226 225 223 221 218 217 216 215 215 217 218
6 317 314 12 334 353 51 68 195 248 305 295 203 121 107 114 104 262 263 301 301 294 301 327 115 239 298 282 257 250 235 236 248 261 270 281 270 113 18 7 6 354 344 333 333 344 339 341 1 3 357 354 353 353 353 351 351 352 348 338 327 324 327 330 328 310 279 261 254 246 240 237 235 233 231 230 230 228 226 224 222 221 221 221 223 223
30 281 265 290 316 118 358 259 170 109 322 276 175 87 41 190 160 200 225 231 267 294 295 313 241 246 271 272 278 309 288 270 283 298 312 311 315 16 12 349 350 340 324 325 340 337 325 340 359 360 354 351 351 352 352 350 348 347 346 342 335 328 326 327 331 323 299 277 263 251 243 239 237 235 234 233 232 231 230 228 226 225 225 226 228 228
27 281 280 329 344 205 191 231 217 115 311 323 38 22 274 190 144 153 277 268 355 334 281 291 286 297 326 293 298 353 325 307 321 321 314 298 321 2 352 324 327 321 317 326 332 317 310 326 344 351 350 347 347 349 348 347 347 345 343 342 339 334 328 324 327 328 316 295 274 259 249 241 238 236 236 236 235 233 232 230 229 229 228 229 229 228
81 290 290 315 306 270 198 177 281 259 133 54 328 269 285 67 105 110 310 327 16 346 279 296 289 296 330 301 311 338 321 312 319 317 303 290 308 332 312 303 302 301 320 339 327 311 309 315 328 343 350 347 345 344 343 343 343 344 344 343 341 338 333 326 322 325 323 307 286 269 256 246 241 239 238 238 238 236 234 232 231 230 230 230 229 227
133 303 294 262 258 288 342 65 339 314 336 144 238 269 35 30 322 359 29 303 338 303 284 299 299 284 237 243 288 308 299 301 306 310 299 286 295 308 297 295 297 307 335 344 320 310 307 304 319 340 349 348 347 343 341 340 339 341 342 343 342 340 338 332 324 321 322 315 298 279 265 253 245 242 240 239 239 237 235 234 232 232 231 230 228 226
32 75 291 287 294 315 358 41 343 311 325 354 344 341 22 175 202 210 207 176 188 256 269 298 310 293 230 218 240 273 285 291 295 304 296 280 279 288 290 291 300 322 339 323 304 304 298 292 314 345 353 350 347 343 341 340 339 338 338 339 341 341 341 339 332 324 321 319 308 288 272 258 248 244 241 239 239 237 237 235 234 234 233 231 228 225
353 107 268 289 325 358 358 293 230 258 297 338 350 336 315 286 253 270 270 149 149 204 241 286 298 277 254 234 239 275 288 285 278 295 310 308 293 279 282 290 302 334 338 316 300 296 291 299 329 351 358 354 349 345 344 342 339 338 337 336 337 339 340 340 337 331 324 321 315 297 279 265 254 247 243 240 239 238 238 237 235 235 235 232 229 225
359 111 246 297 328 339 285 253 197 186 199 183 216 246 224 230 8 332 294 291 129 167 205 240 278 274 271 266 261 271 280 290 306 317 325 325 311 287 286 295 310 346 339 316 309 308 316 340 346 352 357 355 350 345 344 342 339 338 336 335 334 334 335 336 337 335 329 323 317 305 289 274 262 252 245 241 238 237 237 236 235 235 235 233 231 227
10 111 172 281 274 267 277 280 143 157 192 175 207 221 182 148 127 170 250 280 303 268 220 199 254 269 272 262 256 269 292 313 322 324 320 319 310 295 302 310 331 353 339 324 326 336 357 357 350 352 355 355 351 346 343 340 337 335 334 334 332 330 330 330 331 334 333 326 318 310 298 283 268 256 248 242 239 238 237 236 235 234 233 233 232 230
346 85 43 291 283 280 289 311 88 131 131 278 263 238 212 214 157 175 208 216 280 277 255 184 251 269 280 286 268 303 327 322 318 319 319 317 308 308 324 335 354 358 351 352 357 5 4 355 353 355 354 353 350 345 342 337 334 332 332 333 330 326 325 325 325 328 332 330 322 314 303 289 274 261 251 245 242 240 239 237 235 233 232 232 231 230
310 336 52 345 332 329 327 347 358 333 13 286 268 245 201 196 109 150 244 83 288 255 223 193 248 265 285 326 322 319 324 322 321 325 326 317 314 334 350 357 5 6 6 10 11 8 0 354 354 352 350 349 346 342 339 336 333 330 330 332 330 325 323 322 320 320 326 330 325 317 306 294 281 266 256 250 247 244 241 239 236 234 232 230 229 228
264 206 105 82 343 316 313 316 308 304 324 308 289 292 265 181 220 288 296 109 243 247 199 199 248 269 292 314 315 313 320 324 325 329 334 336 351 5 8 8 11 11 11 10 6 2 357 352 349 348 347 345 341 338 335 332 330 327 327 330 328 324 322 321 318 315 318 324 324 318 309 298 286 273 263 256 252 248 245 241 237 234 231 229 228 227
81 231 199 171 188 236 255 258 264 281 300 294 293 295 291 262 218 238 188 210 233 266 267 249 259 280 292 301 307 315 328 331 331 339 351 4 11 11 8 9 8 6 8 7 3 358 352 347 344 343 341 337 334 331 328 326 325 323 323 325 325 322 320 320 317 312 310 315 318 316 311 302 291 281 272 263 258 253 249 244 239 235 232 229 227 225
71 312 251 199 214 243 249 259 275 284 277 276 282 286 290 297 270 198 225 244 239 351 281 267 276 286 292 311 329 340 349 349 348 358 8 11 10 6 6 6 3 1 3 0 355 350 345 339 334 332 330 329 326 323 322 320 319 319 320 320 321 320 318 318 316 310 306 306 309 311 311 307 298 288 279 271 264 258 252 247 242 237 233 229 226 224
103 278 245 196 235 259 260 266 275 276 269 267 267 272 285 299 293 260 253 255 246 238 260 272 284 288 309 346 353 357 3 360 355 1 11 12 7 7 5 0 355 352 351 349 344 339 334 328 326 324 322 321 321 320 319 319 319 320 321 320 319 318 317 318 316 310 304 301 302 305 308 309 303 294 286 277 269 262 255 249 244 239 234 230 226 224
124 265 258 217 254 270 269 267 267 264 269 279 279 281 288 290 281 270 263 262 251 240 254 274 286 295 349 6 354 354 359 355 353 358 7 6 2 1 357 352 348 343 339 336 332 328 324 321 319 318 317 319 322 322 321 321 322 323 322 320 318 316 316 318 315 309 304 298 298 301 303 305 304 298 290 281 273 266 258 251 245 239 234 230 227 224
90 278 303 7 311 292 279 268 267 257 268 284 286 291 303 303 298 294 286 292 291 269 281 303 309 326 5 356 341 348 353 352 354 355 355 352 349 350 349 345 339 333 329 325 323 320 318 316 316 316 318 320 322 322 322 321 322 321 320 319 317 315 315 316 313 309 303 298 298 298 296 298 301 298 292 285 277 269 261 253 245 238 234 230 226 223
16 286 335 26 343 300 294 318 315 300 294 289 289 306 319 317 318 314 316 4 16 352 357 10 359 345 350 343 339 349 352 350 349 346 338 329 336 343 341 332 326 325 323 319 317 316 314 314 314 315 318 319 320 320 319 319 319 318 317 316 315 314 314 313 311 307 303 301 300 298 293 293 295 294 292 287 280 273 263 253 244 237 232 230 225 221
118 306 328 9 332 294 305 329 320 319 331 311 314 346 336 327 340 339 356 40 36 27 24 14 347 333 339 342 344 349 349 343 339 336 326 318 328 332 325 321 320 318 315 313 311 311 310 312 314 315 316 316 316 315 314 314 313 312 311 311 311 311 310 310 309 306 303 303 302 300 295 292 292 290 289 288 283 277 265 252 243 236 232 229 225 220
50 106 270 282 248 287 306 328 328 329 332 287 344 16 359 352 359 353 6 52 38 34 27 350 336 340 342 345 344 341 339 331 322 317 311 310 321 324 320 319 317 314 312 310 309 309 310 312 313 313 313 312 311 311 310 309 308 307 308 308 307 308 307 307 306 304 303 303 303 301 297 293 291 289 288 288 285 278 265 251 243 237 233 229 224 218
345 77 253 243 202 277 310 354 343 318 301 290 15 28 12 2 358 350 4 65 33 22 13 353 345 343 340 339 333 327 323 320 314 307 306 310 317 319 318 318 314 313 313 312 311 312 312 313 312 310 309 309 308 308 307 306 306 307 307 307 307 307 306 305 305 304 304 303 302 301 298 294 292 288 286 285 283 277 266 253 245 238 233 228 222 218
192 179 251 257 219 285 322 7 314 295 313 3 18 17 9 1 350 338 336 49 32 16 6 353 342 337 335 331 328 325 321 317 311 305 307 315 321 322 321 319 317 316 315 313 314 313 311 311 310 308 307 307 305 304 303 304 306 306 306 305 305 305 304 304 303 303 304 304 302 301 299 295 291 287 283 281 278 274 266 256 247 240 233 228 223 219
161 155 321 290 213 207 291 277 283 295 320 13 11 360 1 348 327 316 300 287 27 13 3 352 341 337 336 332 329 328 324 319 316 316 322 327 328 325 322 319 317 316 313 312 312 310 309 309 308 307 307 305 304 303 302 303 304 304 303 303 303 303 303 302 302 304 306 307 307 305 301 297 291 283 278 274 270 268 266 258 249 241 233 225 220 216
175 185 166 275 259 103 304 289 303 304 308 359 343 336 346 330 312 307 285 261 10 4 356 349 340 334 330 327 325 324 323 320 318 321 328 328 324 320 317 315 314 313 312 312 311 310 310 309 308 308 307 305 303 302 303 304 305 303 302 304 305 305 305 303 302 305 308 310 310 309 306 303 295 285 275 267 263 265 267 259 248 239 230 222 218 217
191 203 140 166 276 299 309 283 284 283 300 357 339 336 344 330 315 311 297 307 358 355 345 339 331 323 320 319 320 322 322 319 317 319 323 321 317 316 314 313 313 312 312 312 311 311 311 310 310 310 310 307 303 303 305 307 306 305 305 307 306 306 304 301 301 306 309 309 309 308 306 304 299 289 276 266 263 266 267 260 248 237 228 220 218 217
26 223 132 206 257 248 215 254 273 266 281 339 334 340 342 329 326 344 334 325 342 339 329 324 318 312 314 316 316 320 319 314 312 313 314 313 311 310 310 309 311 312 312 312 313 312 312 310 310 311 310 307 304 304 307 306 304 304 305 305 303 302 300 300 302 307 307 306 306 306 304 302 299 293 280 269 267 270 268 260 248 234 223 217 216 214
309 272 178 209 268 269 228 253 285 252 258 339 345 352 348 338 350 10 334 310 320 320 313 312 310 308 313 314 313 315 310 303 302 304 307 309 308 308 308 309 311 311 311 311 311 311 310 309 309 308 306 304 303 305 306 305 303 303 304 303 299 298 300 302 303 304 304 304 305 304 302 301 300 296 288 277 272 272 269 260 246 232 220 214 211 208
314 300 263 250 284 280 252 272 286 249 29 3 351 347 356 360 1 343 308 298 305 307 304 307 306 305 311 312 309 308 304 300 300 302 306 309 309 307 308 311 312 312 311 312 311 311 311 309 308 307 305 305 306 306 306 305 303 304 305 303 299 301 303 303 301 302 304 304 304 302 301 301 300 297 292 284 275 270 267 258 244 231 220 211 206 203
313 307 313 314 299 309 315 314 310 293 5 5 349 340 11 10 326 297 297 293 296 300 302 305 304 306 311 311 307 306 303 302 303 305 308 309 307 307 310 312 313 312 312 313 312 313 312 310 307 307 306 306 307 307 308 307 303 303 304 302 302 305 306 303 302 304 305 304 303 302 302 302 300 297 294 288 280 272 265 255 240 225 215 206 200 197
349 354 326 316 346 353 327 322 339 320 334 355 346 334 344 333 303 298 304 300 300 304 304 304 305 308 311 310 308 306 304 304 307 308 309 308 307 308 310 312 313 312 312 312 312 312 312 310 308 307 305 306 308 309 309 307 303 302 302 301 305 309 308 306 306 307 305 304 303 304 304 303 301 298 294 290 282 272 260 246 230 216 207 200 195 192
30 4 307 287 351 345 274 267 315 320 330 345 341 324 320 318 312 310 308 306 309 311 310 312 312 312 312 310 308 307 306 307 308 308 307 305 306 308 308 309 311 312 311 311 311 311 312 311 309 307 305 307 309 309 308 306 303 301 301 304 307 309 308 308 308 307 306 305 304 305 305 304 303 300 297 292 282 268 252 236 218 205 199 195 192 191
47 358 323 279 335 319 276 301 330 331 334 335 328 318 318 317 316 316 314 311 311 309 309 310 309 309 310 309 307 306 305 305 305 305 304 304 306 307 306 307 309 310 310 311 310 311 313 312 310 308 308 310 311 310 309 308 304 302 302 305 307 308 307 308 307 307 307 306 305 307 307 305 304 302 301 296 284 266 249 230 212 199 193 191 191 193
3 358 6 16 342 330 327 342 339 332 328 325 319 313 312 311 313 316 314 309 307 306 306 305 304 304 303 302 303 302 301 302 302 302 302 304 306 306 305 306 307 309 311 312 311 313 314 312 310 311 311 310 310 310 311 309 306 305 305 306 308 309 308 309 308 307 306 306 307 309 308 306 306 306 304 300 287 266 245 226 211 198 188 188 190 192
336 350 0 350 339 325 310 322 329 324 318 318 317 317 318 319 319 318 315 312 311 309 307 305 304 303 302 301 301 299 298 300 301 301 301 304 307 306 305 306 308 309 312 313 314 315 315 311 310 312 312 310 311 312 311 309 307 307 307 307 309 310 309 310 309 307 306 307 309 310 309 310 310 310 309 304 288 263 237 218 207 199 195 196 195 192
306 341 347 332 325 311 307 325 331 322 313 315 320 321 322 321 317 315 314 312 308 306 306 305 304 303 302 302 302 302 301 302 303 303 303 306 308 309 309 309 310 310 312 314 315 315 313 310 311 313 313 312 313 313 310 309 308 308 309 309 310 311 310 310 310 308 308 311 312 312 312 313 313 313 314 309 290 263 243 230 218 210 208 207 205 202
338 359 349 331 327 323 321 329 331 321 314 319 323 322 320 316 312 311 311 310 309 309 310 309 308 308 306 305 307 308 305 304 305 305 305 306 309 311 311 311 311 311 313 314 314 313 311 311 313 314 313 312 312 311 310 310 310 310 310 311 311 312 311 310 310 310 311 315 316 314 314 314 314 315 318 313 292 264 252 247 235 224 219 215 212 209
360 355 343 330 322 315 316 323 326 320 313 314 316 317 314 311 310 311 312 311 310 309 310 311 311 311 310 308 308 308 304 303 305 306 306 308 310 310 311 312 313 313 313 313 313 312 311 313 314 314 314 312 310 310 310 310 310 311 311 312 312 312 311 310 310 309 312 316 317 316 315 315 314 317 321 317 295 268 256 251 240 227 223 220 214 207
Height
800 803 809 813 817 820 820 820 819 819 820 820 822 822 821 822 817 806 800 799 801 801 797 793 795 791 781 774 765 758 758 758 754 752 751 750 750 751 751 750 749 749 745 741 740 740 741 742 744 746 746 747 748 748 749 749 749 749 750 750 750 751 752 754 754 755 756 757 757 758 758 758 759 761 762 762 762 763 763 764 765 765 766 766 767 767
802 807 816 820 821 821 820 820 819 819 820 819 822 822 820 821 815 804 801 802 803 805 799 793 796 791 780 773 766 760 759 755 752 751 750 752 754 754 753 753 752 750 746 743 744 745 745 746 747 749 749 749 748 749 749 748 748 749 749 748 748 749 750 750 750 751 751 751 751 751 752 753 755 757 757 758 758 759 760 761 762 762 763 763 763 764
805 812 821 823 822 821 820 820 820 820 821 820 822 823 819 816 813 805 803 805 806 807 799 794 799 790 778 774 766 760 759 755 753 754 754 756 756 756 755 754 753 752 750 748 748 749 749 750 751 751 750 750 749 749 748 748 748 748 748 747 748 748 747 747 747 747 747 747 748 749 750 751 753 753 754 755 756 757 757 758 759 759 759 760 760 761
812 819 825 824 823 822 820 819 820 820 819 820 821 821 817 816 818 810 806 809 809 809 801 798 800 788 776 772 763 759 759 757 757 756 757 759 758 758 757 756 755 754 754 753 752 752 752 752 752 752 751 750 749 748 748 747 747 747 746 746 746 746 745 745 745 745 746 747 748 749 750 751 752 752 753 753 754 754 754 755 755 755 756 756 757 758
819 825 826 824 823 823 821 819 821 820 820 821 819 819 819 819 822 819 816 815 809 806 804 803 798 781 776 775 767 764 762 761 762 759 760 761 759 758 756 755 756 755 755 755 754 754 754 753 752 751 750 749 749 748 746 746 746 745 745 745 744 744 744 744 744 744 745 747 748 749 751 751 751 751 751 750 750 750 751 751 751 751 752 753 754 755
822 828 827 823 822 823 822 821 823 823 823 823 819 820 822 821 822 824 824 818 810 805 802 808 804 784 778 777 771 771 767 766 768 765 764 762 760 758 757 756 755 755 755 755 755 755 754 753 752 750 749 748 747 745 744 743 744 744 743 743 743 743 743 742 742 743 744 745 746 746 747 747 747 747 745 743 743 744 745 745 746 747 748 749 750 751
824 828 827 825 824 823 821 823 825 826 826 823 820 824 824 822 823 825 826 819 815 810 803 810 810 796 786 774 770 776 773 771 771 768 767 764 761 759 758 758 756 755 756 755 755 755 754 753 752 750 748 747 745 743 742 741 741 741 741 741 741 741 741 741 741 741 742 742 742 743 742 742 741 740 739 738 739 740 741 742 743 744 745 746 747 747
826 826 826 825 825 823 822 825 824 826 829 822 820 826 822 820 824 826 826 821 819 815 806 808 807 804 796 775 770 778 774 773 773 770 768 764 761 760 758 758 756 756 756 756 756 755 754 753 751 750 747 746 744 742 741 740 739 739 738 739 739 739 739 739 739 739 739 739 738 739 739 738 738 736 736 737 738 739 740 740 740 741 742 742 743 744
829 826 828 827 826 825 824 826 826 827 829 820 820 827 823 822 825 826 823 820 822 816 803 803 805 807 799 778 774 777 773 775 775 771 768 763 760 759 758 757 755 756 756 756 756 754 754 753 750 749 747 745 745 744 742 740 738 737 737 738 737 737 737 737 736 735 735 735 734 735 735 735 734 734 735 736 737 738 738 738 738 738 739 739 740 741
831 831 833 830 829 829 826 826 827 828 827 821 821 823 819 822 825 823 821 818 820 813 801 801 804 806 800 783 779 777 773 775 774 770 767 761 759 758 757 757 755 756 756 755 755 754 753 752 750 749 747 746 746 744 743 740 738 737 737 737 736 736 736 734 734 732 732 732 732 732 731 731 731 732 733 735 735 736 735 735 735 735 735 736 736 737
835 834 834 833 832 832 828 827 828 829 828 822 821 818 813 818 822 821 821 818 814 806 798 798 801 808 806 789 780 779 773 773 773 769 765 760 759 758 756 757 757 756 756 755 754 753 752 751 750 750 748 747 746 744 742 740 739 738 737 736 735 734 734 733 732 731 729 730 729 729 728 727 728 728 730 731 731 731 732 732 731 731 732 732 732 733
833 829 831 833 834 834 830 827 827 829 830 825 823 821 812 813 817 815 816 814 813 806 796 797 801 807 809 791 777 775 772 772 771 766 762 760 759 758 758 758 757 756 755 754 753 751 751 750 749 749 748 747 746 744 742 741 739 738 737 736 734 733 733 732 730 729 728 728 727 726 725 725 725 726 726 726 726 726 727 727 728 728 728 729 729 730
828 829 834 833 833 835 830 826 826 826 828 827 825 825 821 820 821 819 818 816 814 806 793 798 805 804 801 787 774 772 770 769 769 762 759 759 758 759 760 757 755 755 754 752 752 751 750 750 749 748 747 746 745 743 742 741 739 738 737 735 733 732 732 731 729 727 726 725 724 723 723 722 722 723 723 722 722 722 722 723 723 724 724 724 725 725
832 831 833 830 830 834 831 829 829 826 826 828 828 828 828 832 836 833 829 825 820 807 794 800 809 803 795 782 771 770 767 764 763 759 758 760 760 760 758 755 754 753 752 752 752 752 751 751 749 748 747 746 744 743 741 740 738 737 735 733 732 730 729 728 726 725 723 722 721 720 720 719 720 720 720 719 719 719 719 719 719 719 719 720 719 719
845 837 830 829 831 832 831 832 835 833 831 831 830 831 830 833 840 840 833 828 826 817 803 800 802 798 790 778 768 766 764 763 762 759 762 763 760 759 755 754 753 752 752 752 751 752 751 751 749 748 747 746 745 743 741 740 738 736 734 733 731 728 727 725 723 722 720 718 718 717 717 717 717 717 717 717 716 716 716 716 715 715 715 716 716 716
855 842 828 832 836 832 832 834 836 835 831 829 829 829 830 832 835 836 833 829 829 828 816 801 793 790 785 773 766 767 765 764 764 761 763 762 757 756 754 753 753 752 752 752 751 752 751 750 749 748 748 746 745 744 742 741 739 736 735 732 730 728 725 723 721 719 718 716 715 714 714 714 714 715 715 714 714 714 714 713 713 712 712 713 713 713
858 843 828 833 835 831 834 836 836 835 828 827 828 827 830 835 834 833 833 830 832 833 819 801 794 792 788 774 761 763 764 761 761 760 759 759 756 754 753 752 752 752 751 751 751 751 750 750 749 748 748 746 745 744 742 741 739 737 735 732 730 727 724 722 720 718 716 714 712 711 710 710 711 711 711 711 711 711 711 711 710 710 710 710 710 711
863 850 834 834 831 829 839 838 833 836 833 828 828 829 831 835 833 834 835 832 835 837 818 801 801 802 799 786 766 761 763 759 759 759 758 758 756 754 753 752 753 752 750 749 750 751 750 749 748 747 747 746 745 743 741 740 738 736 734 732 729 726 723 721 718 716 714 712 710 708 707 707 707 707 707 708 708 709 709 708 708 708 708 707 707 708
866 853 835 834 833 830 837 836 829 834 837 833 830 831 831 831 831 834 837 836 840 844 826 806 806 806 799 787 771 766 766 762 759 759 759 757 754 753 753 752 753 752 749 748 749 750 749 748 747 746 745 745 744 743 741 739 737 735 733 731 729 726 723 720 717 715 712 710 707 705 704 703 703 703 704 705 705 706 706 705 705 706 705 705 705 705
865 856 839 833 834 831 829 830 828 828 834 836 833 832 830 829 832 833 832 834 838 843 833 816 808 801 788 778 771 769 767 764 762 760 759 758 755 754 754 753 752 751 748 748 749 749 747 747 746 745 745 745 744 742 741 738 736 734 732 730 728 725 722 719 716 713 711 708 706 703 701 700 700 700 700 701 702 702 701 702 703 703 702 702 702 702
863 860 848 834 834 833 827 828 829 827 831 832 830 830 830 827 828 829 828 830 832 834 833 828 817 796 776 770 770 768 765 763 763 761 759 758 756 755 755 753 752 749 747 748 748 747 746 746 746 745 744 743 743 741 740 738 736 733 731 729 727 724 721 718 715 712 709 707 704 701 699 697 696 696 696 696 697 697 697 698 699 699 700 700 699 699
864 864 860 847 841 834 825 827 830 830 834 834 829 828 828 827 829 834 834 831 830 830 825 828 825 795 768 766 768 765 764 763 762 762 759 757 756 756 755 753 751 749 748 749 747 746 746 747 748 746 744 743 742 741 739 737 734 732 729 727 725 723 720 717 714 711 708 705 703 700 697 695 694 693 692 692 692 692 692 693 694 696 698 697 697 697
871 871 870 857 845 836 829 832 838 839 838 837 835 831 829 829 829 833 834 828 829 832 825 830 830 794 762 763 766 763 765 765 763 763 761 758 757 756 754 752 751 751 751 750 749 748 750 751 750 747 744 742 741 740 738 736 733 731 727 725 723 720 718 716 713 710 707 704 701 698 696 694 692 690 689 688 687 687 686 687 688 690 692 693 694 695
874 870 867 854 841 834 829 831 839 843 838 833 833 832 830 829 827 829 832 831 832 832 828 835 830 790 761 765 767 764 768 767 764 764 763 760 758 756 755 754 754 755 755 754 753 753 754 752 750 748 745 742 741 739 738 736 733 730 726 722 720 718 716 713 710 707 705 701 699 696 694 692 690 689 687 685 684 682 682 683 683 684 685 687 689 691
870 862 862 856 846 837 828 828 832 833 834 830 827 828 829 828 830 833 835 839 836 826 823 832 822 786 765 766 768 767 769 767 764 763 762 761 760 759 760 760 761 761 760 759 757 756 755 754 751 749 746 743 741 739 737 735 733 730 726 721 718 716 713 711 708 704 701 699 696 694 692 690 688 687 684 682 681 679 679 679 679 680 680 682 683 685
871 864 864 860 857 853 846 842 838 833 835 832 825 828 830 829 832 833 836 841 836 824 823 823 808 783 770 771 772 772 770 768 765 763 764 765 766 768 769 769 768 766 764 761 759 757 756 755 752 749 747 744 741 739 737 735 732 729 725 719 716 714 711 707 705 702 698 696 693 691 689 687 686 684 682 680 678 677 676 676 676 676 677 678 680 681
877 873 868 860 856 854 848 844 841 841 844 839 831 828 827 831 835 836 840 838 828 826 824 811 798 792 784 779 777 775 774 773 770 769 772 774 777 778 777 776 774 771 767 764 762 761 759 756 753 750 747 744 741 738 736 733 731 727 722 717 714 711 708 705 701 699 696 693 691 688 686 684 682 681 679 677 676 674 674 673 673 673 673 674 675 677
876 868 866 865 858 848 846 846 844 847 849 844 838 830 824 829 836 839 839 828 820 827 822 799 793 796 788 783 785 787 790 791 786 784 786 787 788 787 784 782 779 775 771 769 767 765 762 758 754 750 746 742 739 736 733 730 728 725 721 716 712 708 706 702 699 696 693 690 688 685 683 681 679 677 676 674 673 672 671 671 670 670 670 670 671 672
875 865 865 869 861 850 850 850 849 852 851 845 841 834 828 830 832 834 830 820 820 827 814 794 792 794 794 801 808 809 811 811 804 799 798 797 796 793 790 788 786 781 777 774 770 767 763 758 753 747 743 739 736 732 729 726 724 721 718 714 710 707 703 700 697 694 690 687 684 682 679 677 675 674 672 670 669 668 668 667 667 667 667 667 667 667
876 864 866 870 864 855 851 849 849 852 850 842 834 830 831 831 828 826 823 818 820 819 808 801 801 802 810 822 824 819 818 815 809 804 801 801 799 797 794 792 789 784 780 776 771 767 762 756 751 745 740 736 732 728 725 723 720 717 714 711 708 704 701 698 695 691 688 685 681 678 676 674 672 670 668 667 665 664 664 663 664 664 664 663 664 664
873 864 867 870 863 851 843 841 845 847 846 842 832 827 829 827 820 817 814 813 817 817 814 814 816 818 824 826 823 819 816 812 809 806 804 803 800 796 794 791 788 783 778 774 770 764 759 754 748 743 738 733 729 725 722 719 717 714 712 709 706 702 698 695 692 688 685 682 678 675 673 671 669 666 664 663 661 660 660 659 660 659 660 660 660 661
876 871 869 869 864 847 833 836 842 844 843 837 829 827 825 820 816 814 814 821 829 831 829 830 832 833 831 826 822 818 814 812 810 809 805 802 798 795 792 789 785 781 776 771 767 762 757 753 747 742 738 733 728 725 721 718 715 713 710 708 704 700 696 693 690 686 682 678 675 672 669 667 665 662 661 659 658 656 655 655 656 656 656 656 656 657
882 879 871 871 866 845 831 838 844 842 835 823 819 826 824 819 821 820 824 836 842 841 842 844 844 839 832 829 824 819 817 816 813 810 806 800 796 793 789 786 781 777 774 769 765 761 756 751 746 741 737 733 729 725 721 717 714 712 709 706 703 699 694 690 687 683 679 676 672 668 665 663 661 658 656 655 654 652 652 651 651 651 651 652 652 654
885 883 877 877 869 848 839 845 843 837 829 816 819 834 836 832 834 834 838 847 846 843 846 847 842 837 832 829 826 823 822 820 815 812 807 798 793 789 785 782 777 773 770 766 762 757 752 747 743 739 735 731 727 723 719 716 713 709 707 704 700 696 691 687 684 680 676 672 668 664 661 659 657 654 652 650 649 648 648 647 647 647 647 648 649 650
884 883 880 877 871 857 849 851 846 834 823 819 826 840 843 841 840 839 843 850 847 843 844 842 837 834 832 829 827 825 822 819 814 809 801 794 791 787 783 779 776 771 766 761 756 752 748 744 740 736 733 729 725 721 717 713 710 706 703 700 696 692 688 684 680 677 674 669 665 661 657 655 653 650 647 646 645 644 644 643 642 642 643 644 644 645
883 882 882 879 872 860 850 852 851 832 819 828 839 842 843 845 845 842 840 845 847 843 841 841 837 833 831 828 825 821 817 813 808 802 796 792 788 785 782 777 773 769 764 758 754 749 746 742 738 734 730 726 722 719 715 711 707 703 700 696 693 689 685 681 677 674 671 666 661 657 654 651 648 645 643 642 641 640 639 639 638 638 638 639 640 641
885 883 883 877 869 863 856 854 851 833 826 845 857 853 856 859 855 851 844 840 842 841 837 838 835 830 829 825 820 815 810 805 800 795 791 789 786 783 780 775 771 766 761 756 752 748 744 740 736 732 728 723 719 715 711 708 704 700 697 693 689 686 682 678 674 670 667 663 658 654 650 647 644 640 638 637 636 635 634 633 633 633 634 635 636 637
884 883 883 877 869 867 865 863 859 844 843 864 872 862 861 859 850 847 842 834 835 837 836 837 835 831 827 823 818 813 808 803 799 793 789 787 785 781 777 772 769 764 759 754 749 745 741 737 733 729 725 721 717 712 708 704 701 697 693 689 686 682 679 674 670 666 663 659 655 651 648 644 640 636 633 631 630 628 628 627 627 627 628 630 631 632
884 884 885 884 880 875 870 868 861 848 853 874 874 860 857 854 842 837 834 830 834 840 840 839 837 832 827 822 818 814 811 808 800 792 788 786 783 779 775 770 766 761 757 752 747 742 738 733 729 726 722 718 713 709 706 703 698 693 689 686 683 679 675 671 666 662 659 655 652 648 644 641 637 633 630 626 624 622 622 621 621 622 623 624 626 628
884 888 887 884 879 876 876 870 856 850 865 879 870 860 859 848 835 839 846 843 842 845 843 839 836 831 826 822 819 816 815 810 799 791 788 785 782 778 774 768 763 759 754 749 745 741 736 730 726 722 718 714 708 704 702 699 694 690 686 683 679 674 670 666 661 659 656 651 648 644 640 637 633 629 627 623 619 618 616 615 616 617 618 619 621 624
866 874 881 879 870 867 872 866 850 854 876 879 864 861 858 844 842 861 870 859 848 845 842 839 834 829 825 823 820 816 814 809 799 791 787 783 779 775 770 766 761 756 751 747 742 738 733 728 723 719 714 709 704 700 697 693 689 686 682 679 674 669 665 661 657 654 651 647 644 640 636 633 629 625 622 619 616 614 611 610 611 612 613 615 617 620
860 860 868 873 865 859 862 858 848 855 872 873 865 862 858 857 867 876 870 857 849 845 841 837 833 828 825 823 819 814 809 803 797 790 785 781 777 771 766 762 757 752 748 743 738 734 730 724 720 715 710 705 701 696 693 690 686 681 678 674 669 664 661 658 654 650 646 643 639 635 632 628 624 621 617 614 612 610 607 606 606 607 609 611 613 616
868 865 865 867 864 861 861 860 861 868 873 872 871 868 865 871 877 870 859 854 850 843 838 835 831 827 824 821 817 811 805 798 793 788 783 778 773 768 763 758 753 748 744 739 735 731 726 721 715 711 705 700 696 693 689 686 682 678 673 669 664 661 658 654 650 647 643 640 635 631 627 623 619 616 612 609 607 605 603 603 603 604 605 607 610 612
877 882 883 880 876 878 880 877 877 882 879 875 876 874 871 871 869 861 856 852 845 840 837 832 828 826 823 819 814 807 801 795 790 785 780 774 768 764 759 754 750 745 740 736 731 727 723 718 713 707 701 696 693 690 687 683 678 674 669 665 661 658 654 649 646 643 640 636 632 627 623 619 615 611 607 604 602 600 599 599 599 601 602 604 607 609
890 896 894 890 888 893 896 890 883 880 877 876 876 873 868 864 860 857 854 848 842 838 835 830 826 823 820 816 811 804 798 792 787 781 776 770 764 760 755 750 746 742 737 732 728 723 719 715 710 703 697 693 690 687 683 679 675 670 666 661 657 655 651 646 643 640 636 632 628 623 619 615 611 607 603 600 598 596 595 595 596 598 600 602 604 606
898 897 893 894 896 895 892 886 881 878 876 874 873 869 865 861 856 853 850 845 841 837 832 830 827 821 816 813 808 801 795 789 784 778 772 766 761 756 752 747 742 738 733 728 723 719 715 711 706 700 694 689 687 683 678 674 671 667 662 658 654 651 648 644 640 636 632 628 624 620 616 611 607 603 599 596 593 591 591 591 592 594 597 599 601 603
899 895 894 898 900 898 891 885 882 880 876 872 869 865 862 859 855 852 849 844 839 835 830 827 823 818 814 810 805 799 792 786 781 774 767 763 758 752 748 743 738 733 729 724 719 715 711 708 702 697 691 686 682 678 674 669 666 663 659 655 651 648 644 641 637 633 629 625 621 617 612 608 603 600 596 593 590 589 588 589 590 592 594 596 598 601
903 899 901 901 900 899 895 887 883 880 876 872 867 862 858 854 851 849 846 842 836 831 826 822 819 815 810 804 800 795 788 782 777 770 763 759 755 749 744 740 734 730 725 721 716 712 708 705 699 694 688 683 678 674 670 666 662 659 655 651 648 645 641 638 634 630 625 622 619 614 610 605 601 597 593 590 588 587 586 587 588 589 590 592 594 596
906 904 906 904 901 897 891 885 883 879 872 868 866 863 859 855 850 846 843 839 834 828 822 817 813 810 806 800 795 790 783 776 772 765 759 754 750 745 741 736 731 727 721 717 713 709 705 701 695 690 685 679 674 671 667 662 659 655 651 648 645 642 639 635 631 626 623 620 616 612 607 603 599 596 592 589 587 586 585 585 586 587 588 589 591 593
909 910 909 907 906 901 893 888 886 881 873 867 864 863 860 856 851 846 841 836 830 824 818 812 806 802 799 795 790 785 778 771 765 760 755 750 746 742 737 732 728 723 718 714 709 705 701 696 691 687 682 675 672 668 663 659 656 651 648 645 642 639 636 632 628 624 620 618 614 610 605 601 598 594 591 588 587 586 585 585 585 586 587 589 590 593
912 912 910 910 909 902 894 889 887 885 878 870 865 863 859 855 850 845 841 835 828 821 816 811 804 797 791 787 784 782 775 767 761 756 750 745 742 738 733 729 724 719 714 710 705 700 696 692 687 683 678 672 668 665 660 656 653 649 645 642 639 637 634 630 626 621 618 615 612 608 604 600 596 593 590 588 587 586 585 585 586 587 588 589 590 593